Weather History for Williamsport, PA

Change the Weather History Date:

Sunday, February 23, 2014

  Actual Average Record
Temperature  
Mean Temperature 37 °F 31 °F  
Max Temperature 50 °F 40 °F 70 °F (1985)
Min Temperature 24 °F 23 °F -6 °F (1972)
Degree Days  
Heating Degree Days 28 34  
Month to date heating degree days 937 824  
Since 1 July heating degree days 4607 4303  
Cooling Degree Days 0 0  
Month to date cooling degree days 0 0  
Year to date cooling degree days 0 0  
Moisture  
Dew Point 24 °F    
Average Humidity 65    
Maximum Humidity 88    
Minimum Humidity 42    
Precipitation  
Precipitation 0.00 in 0.08 in 2.18 in (1981)
Month to date precipitation 2.55 1.91  
Year to date precipitation 3.80 4.61  
Snow  
Snow 0.00 in - - ()
Month to date snowfall 21.6  
Since 1 July snowfall 45.8  
Snow Depth 2.00 in    
Sea Level Pressure  
Sea Level Pressure 29.97 in    
Wind  
Wind Speed 4 mph (West)    
Max Wind Speed 13 mph    
Max Gust Speed 16 mph    
Visibility 10 miles    
Events      
T = Trace of Precipitation, MM = Missing Value Source: NWS Daily Summary

Daily Weather History Graph

Daily Weather History Graph

Search for Another Location

Airport:

Trip Planner

Search our weather history database for the weather conditions in past years. The results will help you decide how hot, cold, wet, or windy it might be!

Date:

Astronomy

Feb. 23, 2014 Rise Set
Actual Time 6:51 AM EST 5:51 PM EST
Civil Twilight 6:23 AM EST 6:19 PM EST
Nautical Twilight 5:51 AM EST 6:51 PM EST
Astronomical Twilight 5:19 AM EST 7:23 PM EST
Moon 1:49 AM EST 11:50 AM EST
Length of Visible Light 11h 56m
Length of Day
11h 00m
Last Quarter, 39% of the Moon is Illuminated
Feb 23
Last Quarter
Mar 1
New
Mar 8
First Quarter
Mar 16
Full
Mar 23
Last Quarter

Hourly Weather History & Observations

Time (EST) Temp. Windchill Dew Point Humidity Pressure Visibility Wind Dir Wind Speed Gust Speed Precip Events Conditions
12:54 AM 28.0 °F 24.2 °F 21.9 °F 78% 30.02 in 10.0 mi NNW 3.5 mph - N/A   Clear
1:54 AM 25.0 °F - 21.0 °F 85% 30.02 in 10.0 mi Calm Calm - N/A   Clear
2:54 AM 27.0 °F - 21.0 °F 78% 30.03 in 10.0 mi Calm Calm - N/A   Clear
3:54 AM 26.1 °F - 21.0 °F 81% 30.03 in 10.0 mi Calm Calm - N/A   Clear
4:54 AM 26.1 °F - 21.0 °F 81% 30.04 in 10.0 mi Calm Calm - N/A   Clear
5:54 AM 26.1 °F - 21.0 °F 81% 30.04 in 10.0 mi Calm Calm - N/A   Clear
6:54 AM 26.1 °F - 21.0 °F 81% 30.04 in 10.0 mi Calm Calm - N/A   Partly Cloudy
7:54 AM 28.9 °F - 23.0 °F 78% 30.04 in 10.0 mi Calm Calm - N/A   Mostly Cloudy
8:54 AM 30.9 °F - 23.0 °F 72% 30.04 in 10.0 mi Calm Calm - N/A   Clear
9:54 AM 35.1 °F - 25.0 °F 67% 30.04 in 10.0 mi Calm Calm - N/A   Clear
10:54 AM 37.9 °F - 27.0 °F 65% 30.01 in 10.0 mi Calm Calm - N/A   Mostly Cloudy
11:54 AM 43.0 °F - 28.0 °F 56% 29.97 in 10.0 mi Calm Calm - N/A   Partly Cloudy
12:54 PM 46.0 °F 43.1 °F 28.0 °F 50% 29.95 in 10.0 mi WNW 5.8 mph - N/A   Mostly Cloudy
1:54 PM 46.9 °F - 27.0 °F 46% 29.92 in 10.0 mi WSW 8.1 mph - N/A   Mostly Cloudy
2:54 PM 48.9 °F - 26.1 °F 41% 29.88 in 10.0 mi NNW 4.6 mph - N/A   Mostly Cloudy
3:54 PM 46.9 °F - 27.0 °F 46% 29.89 in 10.0 mi West 8.1 mph - N/A   Mostly Cloudy
4:54 PM 45.0 °F 40.1 °F 27.0 °F 49% 29.90 in 10.0 mi WSW 9.2 mph - N/A   Overcast
5:54 PM 44.1 °F 39.0 °F 24.1 °F 45% 29.92 in 10.0 mi West 9.2 mph - N/A   Overcast
6:54 PM 42.1 °F 36.6 °F 23.0 °F 47% 29.93 in 10.0 mi West 9.2 mph - N/A   Overcast
7:54 PM 41.0 °F 35.8 °F 24.1 °F 51% 29.91 in 10.0 mi West 8.1 mph - N/A   Partly Cloudy
8:54 PM 39.9 °F 34.5 °F 25.0 °F 55% 29.91 in 10.0 mi West 8.1 mph - N/A   Mostly Cloudy
9:54 PM 37.9 °F 32.7 °F 27.0 °F 65% 29.91 in 10.0 mi West 6.9 mph - N/A   Clear
10:54 PM 37.0 °F 32.4 °F 26.1 °F 65% 29.89 in 10.0 mi WSW 5.8 mph - N/A   Clear
11:54 PM 37.0 °F 30.4 °F 25.0 °F 62% 29.88 in 10.0 mi West 9.2 mph - N/A   Clear